When you browse on this site, cookies collect data to enhance your experience and personalize the content and advertising you see.
Visit our Privacy Policy to learn more. By continuing to use the site, you agree to this use of cookies and data.
  • In Portugal
  • List of Countries
  • For 7 days
  • Water Temperature
  • Satellite Maps
  • Weather Map
  • Weather Widgets
  • user-avatar
    Login

    Hourly Weather Dahab

    Today, 27 March, Wednesday

    Time Temperature Precipitation Wind Pressure Humidity
    00:00 +17°C° 0 mm 2 mps 715 mmHg 47%
    01:00 +16°C° 0 mm 2 mps 715 mmHg 48%
    02:00 +16°C° 0 mm 2 mps 715 mmHg 49%
    03:00 +15°C° 0 mm 2 mps 715 mmHg 50%
    04:00 +15°C° 0 mm 2 mps 715 mmHg 50%
    05:00 +15°C° 0 mm 1 mps 715 mmHg 51%
    06:00 +15°C° 0 mm 1 mps 715 mmHg 47%
    07:00 +16°C° 0 mm 1 mps 716 mmHg 43%
    08:00 +18°C° 0 mm 1 mps 716 mmHg 40%
    09:00 +18°C° 0 mm 2 mps 716 mmHg 36%
    10:00 +19°C° 0 mm 2 mps 717 mmHg 33%
    11:00 +20°C° 0 mm 2 mps 717 mmHg 30%
    12:00 +21°C° 0 mm 3 mps 717 mmHg 28%
    13:00 +21°C° 0 mm 3 mps 717 mmHg 26%
    14:00 +22°C° 0 mm 3 mps 716 mmHg 25%
    15:00 +22°C° 0 mm 3 mps 716 mmHg 25%
    16:00 +21°C° 0 mm 3 mps 716 mmHg 25%
    17:00 +21°C° 0 mm 3 mps 716 mmHg 25%
    18:00 +20°C° 0 mm 2 mps 716 mmHg 26%
    19:00 +20°C° 0 mm 2 mps 717 mmHg 27%
    20:00 +20°C° 0 mm 1 mps 717 mmHg 28%
    21:00 +20°C° 0 mm 1 mps 717 mmHg 28%
    22:00 +18°C° 0 mm 2 mps 717 mmHg 28%
    23:00 +18°C° 0 mm 2 mps 717 mmHg 28%

    Tomorrow, 28 March, Thursday

    Time Temperature Precipitation Wind Pressure Humidity
    00:00 +17°C° 0 mm 2 mps 717 mmHg 29%
    01:00 +17°C° 0 mm 2 mps 717 mmHg 30%
    02:00 +16°C° 0 mm 2 mps 716 mmHg 31%
    03:00 +16°C° 0 mm 2 mps 716 mmHg 33%
    04:00 +16°C° 0 mm 2 mps 716 mmHg 34%
    05:00 +16°C° 0 mm 2 mps 717 mmHg 35%
    06:00 +17°C° 0 mm 2 mps 717 mmHg 34%
    07:00 +17°C° 0 mm 2 mps 717 mmHg 32%
    08:00 +18°C° 0 mm 2 mps 717 mmHg 30%
    09:00 +19°C° 0 mm 2 mps 717 mmHg 28%
    10:00 +20°C° 0 mm 2 mps 717 mmHg 26%
    11:00 +23°C° 0 mm 2 mps 717 mmHg 24%
    12:00 +23°C° 0 mm 2 mps 717 mmHg 23%
    13:00 +24°C° 0 mm 2 mps 716 mmHg 23%
    14:00 +24°C° 0 mm 3 mps 716 mmHg 22%
    15:00 +24°C° 0 mm 2 mps 715 mmHg 22%
    16:00 +24°C° 0 mm 2 mps 715 mmHg 23%
    17:00 +23°C° 0 mm 2 mps 714 mmHg 24%
    18:00 +23°C° 0 mm 2 mps 715 mmHg 26%
    19:00 +22°C° 0 mm 1 mps 715 mmHg 27%
    20:00 +20°C° 0 mm 0 mps 715 mmHg 29%
    21:00 +19°C° 0 mm 0 mps 715 mmHg 30%
    22:00 +19°C° 0 mm 0 mps 715 mmHg 31%
    23:00 +18°C° 0 mm 0 mps 714 mmHg 31%

    Day after tomorrow, 29 March, Friday

    Time Temperature Precipitation Wind Pressure Humidity
    00:00 +18°C° 0 mm 0 mps 714 mmHg 31%
    01:00 +17°C° 0 mm 0 mps 713 mmHg 31%
    02:00 +19°C° 0 mm 1 mps 713 mmHg 31%
    03:00 +19°C° 0 mm 1 mps 713 mmHg 30%
    04:00 +18°C° 0 mm 1 mps 713 mmHg 30%
    05:00 +16°C° 0 mm 0 mps 712 mmHg 30%
    06:00 +18°C° 0 mm 0 mps 713 mmHg 27%
    07:00 +19°C° 0 mm 0 mps 713 mmHg 25%
    08:00 +21°C° 0 mm 0 mps 713 mmHg 22%
    09:00 +24°C° 0 mm 1 mps 713 mmHg 21%
    10:00 +25°C° 0 mm 2 mps 713 mmHg 19%
    11:00 +26°C° 0 mm 3 mps 713 mmHg 18%
    12:00 +26°C° 0 mm 3 mps 712 mmHg 18%
    13:00 +27°C° 0 mm 3 mps 712 mmHg 18%
    14:00 +27°C° 0 mm 3 mps 711 mmHg 17%
    15:00 +27°C° 0 mm 3 mps 710 mmHg 19%
    16:00 +27°C° 0 mm 3 mps 710 mmHg 20%
    17:00 +26°C° 0 mm 3 mps 709 mmHg 21%
    18:00 +26°C° 0 mm 3 mps 710 mmHg 23%
    19:00 +25°C° 0 mm 2 mps 710 mmHg 25%
    20:00 +24°C° 0 mm 1 mps 710 mmHg 27%
    21:00 +24°C° 0 mm 2 mps 709 mmHg 27%
    22:00 +23°C° 0 mm 2 mps 709 mmHg 27%
    23:00 +23°C° 0 mm 2 mps 709 mmHg 27%

    30 March, Saturday

    Time Temperature Precipitation Wind Pressure Humidity
    00:00 +23°C° 0 mm 2 mps 708 mmHg 28%
    01:00 +21°C° 0 mm 2 mps 708 mmHg 28%
    02:00 +21°C° 0 mm 1 mps 707 mmHg 28%
    03:00 +20°C° 0 mm 2 mps 707 mmHg 31%
    04:00 +20°C° 0 mm 2 mps 707 mmHg 33%
    05:00 +20°C° 0 mm 2 mps 708 mmHg 36%
    06:00 +20°C° 0.1 mm 2 mps 708 mmHg 39%
    07:00 +20°C° 0.1 mm 2 mps 708 mmHg 42%
    08:00 +20°C° 0.1 mm 2 mps 709 mmHg 45%
    09:00 +21°C° 0 mm 3 mps 709 mmHg 40%
    10:00 +22°C° 0 mm 3 mps 709 mmHg 35%
    11:00 +24°C° 0 mm 3 mps 709 mmHg 29%
    12:00 +24°C° 0 mm 3 mps 709 mmHg 27%
    13:00 +25°C° 0 mm 4 mps 708 mmHg 24%
    14:00 +25°C° 0 mm 4 mps 708 mmHg 21%
    15:00 +23°C° 0 mm 4 mps 708 mmHg 23%
    16:00 +24°C° 0 mm 3 mps 708 mmHg 24%
    17:00 +24°C° 0 mm 3 mps 708 mmHg 25%
    18:00 +22°C° 0 mm 3 mps 708 mmHg 28%
    19:00 +21°C° 0 mm 3 mps 708 mmHg 30%
    20:00 +20°C° 0 mm 3 mps 709 mmHg 33%
    21:00 +19°C° 0 mm 3 mps 709 mmHg 35%
    22:00 +19°C° 0 mm 3 mps 709 mmHg 37%
    23:00 +18°C° 0 mm 3 mps 709 mmHg 39%

    31 March, Sunday

    Time Temperature Precipitation Wind Pressure Humidity
    00:00 +17°C° 0 mm 3 mps 709 mmHg 40%
    01:00 +17°C° 0 mm 2 mps 709 mmHg 42%
    02:00 +16°C° 0 mm 2 mps 709 mmHg 43%
    03:00 +15°C° 0 mm 2 mps 709 mmHg 43%
    04:00 +14°C° 0 mm 3 mps 709 mmHg 44%
    05:00 +13°C° 0 mm 3 mps 709 mmHg 44%
    06:00 +13°C° 0 mm 3 mps 709 mmHg 44%
    07:00 +13°C° 0 mm 3 mps 710 mmHg 43%
    08:00 +13°C° 0 mm 3 mps 710 mmHg 42%
    09:00 +14°C° 0 mm 3 mps 710 mmHg 38%
    10:00 +15°C° 0 mm 4 mps 710 mmHg 33%
    11:00 +15°C° 0 mm 4 mps 710 mmHg 29%
    12:00 +17°C° 0 mm 4 mps 710 mmHg 27%
    13:00 +16°C° 0 mm 5 mps 710 mmHg 25%
    14:00 +16°C° 0 mm 5 mps 709 mmHg 23%
    15:00 +16°C° 0 mm 6 mps 709 mmHg 24%
    16:00 +16°C° 0 mm 6 mps 710 mmHg 25%
    17:00 +15°C° 0 mm 6 mps 710 mmHg 26%
    18:00 +14°C° 0 mm 5 mps 710 mmHg 30%
    19:00 +14°C° 0 mm 4 mps 711 mmHg 35%
    20:00 +13°C° 0 mm 3 mps 711 mmHg 39%
    21:00 +13°C° 0 mm 3 mps 711 mmHg 41%
    22:00 +13°C° 0 mm 3 mps 711 mmHg 43%
    23:00 +14°C° 0 mm 2 mps 711 mmHg 44%

    1 April, Monday

    Time Temperature Precipitation Wind Pressure Humidity
    00:00 +13°C° 0 mm 2 mps 711 mmHg 47%
    01:00 +13°C° 0 mm 2 mps 711 mmHg 49%
    02:00 +13°C° 0 mm 2 mps 711 mmHg 51%
    03:00 +12°C° 0 mm 2 mps 711 mmHg 53%
    04:00 +12°C° 0 mm 2 mps 711 mmHg 55%
    05:00 +12°C° 0 mm 2 mps 711 mmHg 57%
    06:00 +12°C° 0 mm 2 mps 712 mmHg 55%
    07:00 +13°C° 0 mm 2 mps 712 mmHg 52%
    08:00 +14°C° 0 mm 2 mps 713 mmHg 50%
    09:00 +15°C° 0 mm 2 mps 713 mmHg 46%
    10:00 +16°C° 0 mm 3 mps 713 mmHg 43%
    11:00 +17°C° 0 mm 3 mps 713 mmHg 39%
    12:00 +17°C° 0 mm 3 mps 713 mmHg 37%
    13:00 +18°C° 0 mm 3 mps 712 mmHg 35%
    14:00 +19°C° 0 mm 3 mps 712 mmHg 34%
    15:00 +18°C° 0 mm 3 mps 712 mmHg 34%
    16:00 +18°C° 0 mm 3 mps 712 mmHg 33%
    17:00 +18°C° 0 mm 3 mps 712 mmHg 33%
    18:00 +18°C° 0 mm 3 mps 712 mmHg 36%
    19:00 +17°C° 0 mm 2 mps 713 mmHg 38%
    20:00 +16°C° 0 mm 2 mps 713 mmHg 41%
    21:00 +16°C° 0 mm 2 mps 713 mmHg 42%
    22:00 +16°C° 0 mm 2 mps 713 mmHg 44%
    23:00 +16°C° 0 mm 2 mps 713 mmHg 45%
    Show more